Lord Of The Glens — ZQOE9 — position and weather

sailwx.info

Track history (hours):
 
Tides and Currents Weather Stations Pressure Air Temp Water Temp Dewpoint Dewpoint Depression Visibility Wind Speed Wind Dir Waves Ship Positions

Lord Of The Glens

Operator: V Ships UK Ltd

Last reported at 2018-May-20 20:58 UTC. Time now 2018-May-20 21:23 UTC.
Position N 57°17' W 005°43'.

Length 45 m; draft 2.8 m.

Type: Passenger vessel. MMSI: 235000295.

Date/timePositionNaut miles runAvg speedWind from/ knotsBaromVisibWave heightAir tempDewpointWater temp
2018-May-20 20:58N 57°17' W 005°43'0 0.0
2018-May-20 20:29N 57°17' W 005°43'0 0.0
2018-May-20 19:58N 57°17' W 005°43'0 0.0
2018-May-20 19:19N 57°17' W 005°43'0 0.0
2018-May-20 19:00N 57°17' W 005°43'0 0.0
2018-May-20 18:28N 57°17' W 005°43'0 0.0
2018-May-20 17:59N 57°17' W 005°43'0 0.0
2018-May-20 17:28N 57°17' W 005°43'0 0.0
2018-May-20 17:00N 57°17' W 005°43'0 0.0
2018-May-20 16:28N 57°17' W 005°43'0 0.0
2018-May-20 15:58N 57°17' W 005°43'0 0.0
2018-May-20 15:29N 57°17' W 005°43'0 0.0
2018-May-20 14:59N 57°17' W 005°43'0 0.0
2018-May-20 14:29N 57°17' W 005°43'0 0.0
2018-May-20 14:00N 57°17' W 005°43'0 0.0
2018-May-20 13:28N 57°17' W 005°43'0 0.5
2018-May-20 12:59N 57°17' W 005°42'3 6.1
2018-May-20 12:30N 57°14' W 005°40'6 8.6
2018-May-20 11:51N 57°09' W 005°45'  
2018-May-18 06:23N 56°28' W 005°39'410.5
2018-May-18 06:01N 56°26' W 005°32'2 0.1
2018-May-17 10:41N 56°25' W 005°29'1 8.3
2018-May-17 10:30N 56°26' W 005°30'5 9.6
2018-May-17 10:01N 56°31' W 005°27'510.9
2018-May-17 09:30N 56°36' W 005°24'  
2018-May-12 06:36N 56°46' W 005°12'110.0
2018-May-12 06:30N 56°45' W 005°13'4 8.9
2018-May-12 06:00N 56°41' W 005°16'5 9.6
2018-May-12 05:30N 56°38' W 005°22'5 9.2
2018-May-12 05:00N 56°33' W 005°25'5 9.6
2018-May-12 04:30N 56°29' W 005°29'4 0.2
2018-May-11 08:05N 56°25' W 005°29'0 0.0
2018-May-11 07:40N 56°25' W 005°29'1 3.7
2018-May-11 07:31N 56°25' W 005°30'0 0.3
2018-May-11 06:07N 56°24' W 005°31'  
Track history (hours):
 
Tides and Currents Weather Stations Pressure Air Temp Water Temp Dewpoint Dewpoint Depression Visibility Wind Speed Wind Dir Waves Ship Positions

Lord Of The Glens

Operator: V Ships UK Ltd

Last reported at 2018-May-20 20:58 UTC. Time now 2018-May-20 21:23 UTC.
Position N 57°17' W 005°43'.

Length 45 m; draft 2.8 m.

Type: Passenger vessel. MMSI: 235000295.

Date/timePositionNaut miles runAvg speedWind from/ knotsBaromVisibWave heightAir tempDewpointWater temp
2018-May-20 20:58N 57°17' W 005°43'0 0.0
2018-May-20 20:29N 57°17' W 005°43'0 0.0
2018-May-20 19:58N 57°17' W 005°43'0 0.0
2018-May-20 19:19N 57°17' W 005°43'0 0.0
2018-May-20 19:00N 57°17' W 005°43'0 0.0
2018-May-20 18:28N 57°17' W 005°43'0 0.0
2018-May-20 17:59N 57°17' W 005°43'0 0.0
2018-May-20 17:28N 57°17' W 005°43'0 0.0
2018-May-20 17:00N 57°17' W 005°43'0 0.0
2018-May-20 16:28N 57°17' W 005°43'0 0.0
2018-May-20 15:58N 57°17' W 005°43'0 0.0
2018-May-20 15:29N 57°17' W 005°43'0 0.0
2018-May-20 14:59N 57°17' W 005°43'0 0.0
2018-May-20 14:29N 57°17' W 005°43'0 0.0
2018-May-20 14:00N 57°17' W 005°43'0 0.0
2018-May-20 13:28N 57°17' W 005°43'0 0.5
2018-May-20 12:59N 57°17' W 005°42'3 6.1
2018-May-20 12:30N 57°14' W 005°40'6 8.6
2018-May-20 11:51N 57°09' W 005°45'  
2018-May-18 06:23N 56°28' W 005°39'410.5
2018-May-18 06:01N 56°26' W 005°32'2 0.1
2018-May-17 10:41N 56°25' W 005°29'1 8.3
2018-May-17 10:30N 56°26' W 005°30'5 9.6
2018-May-17 10:01N 56°31' W 005°27'510.9
2018-May-17 09:30N 56°36' W 005°24'  
2018-May-12 06:36N 56°46' W 005°12'110.0
2018-May-12 06:30N 56°45' W 005°13'4 8.9
2018-May-12 06:00N 56°41' W 005°16'5 9.6
2018-May-12 05:30N 56°38' W 005°22'5 9.2
2018-May-12 05:00N 56°33' W 005°25'5 9.6
2018-May-12 04:30N 56°29' W 005°29'4 0.2
2018-May-11 08:05N 56°25' W 005°29'0 0.0
2018-May-11 07:40N 56°25' W 005°29'1 3.7
2018-May-11 07:31N 56°25' W 005°30'0 0.3
2018-May-11 06:07N 56°24' W 005°31'  

Dump ship's entire track history